G7GFU-13 Weather Reports


Display with metric or nautical units.
time (UTC)temp
F
wind
direction
speed
MPH
gust
MPH
rain 1hr
in
rain 24hr
in
rain mn
in
humidity
%
barometer
mb
20260508080903 55 189 1.0 3.0 0.00 0.00 0.00 74 1016.6
20260508080003 55 193 1.0 3.0 0.00 0.00 0.00 74 1016.6
20260508075403 56 183 1.0 4.0 0.00 0.00 0.00 74 1016.5
20260508074503 55 146 1.0 3.0 0.00 0.00 0.00 75 1016.5
20260508073603 54 142 1.0 3.0 0.00 0.00 0.00 77 1016.5
20260508072917 53 130 1.0 2.0 0.00 0.00 0.00 79 1016.5
20260508071803 52 130 1.0 3.0 0.00 0.00 0.00 78 1016.4
20260508070903 52 121 1.0 3.0 0.00 0.00 0.00 78 1016.3
20260508070003 52 118 0.0 2.0 0.00 0.00 0.00 78 1016.3
20260508065403 52 119 0.0 2.0 0.00 0.00 0.00 79 1016.2
20260508064503 52 118 1.0 3.0 0.00 0.00 0.00 79 1016.1
20260508063603 52 118 0.0 2.0 0.00 0.00 0.00 78 1016.0
20260508062703 52 108 1.0 3.0 0.00 0.00 0.00 78 1015.9
20260508061803 51 86 0.0 1.0 0.00 0.00 0.00 80 1015.8
20260508060903 50 99 0.0 3.0 0.00 0.00 0.00 80 1015.8
20260508060003 50 75 0.0 2.0 0.00 0.00 0.00 81 1015.7
20260508055403 50 88 0.0 3.0 0.00 0.00 0.00 82 1015.7
20260508054503 49 91 0.0 3.0 0.00 0.00 0.00 84 1015.6
20260508053603 48 50 1.0 3.0 0.00 0.00 0.00 85 1015.5
20260508052703 48 161 0.0 4.0 0.00 0.00 0.00 85 1015.4
20260508051803 48 0 0.0 1.0 0.00 0.00 0.00 86 1015.3
20260508050903 48 173 0.0 2.0 0.00 0.00 0.00 86 1015.2
20260508050003 48 0 0.0 1.0 0.00 0.00 0.00 85 1015.2
20260508045403 47 0 0.0 0.0 0.00 0.00 0.00 85 1015.2
20260508044503 48 0 0.0 0.0 0.00 0.00 0.00 84 1015.3
20260508043603 47 0 0.0 0.0 0.00 0.00 0.00 84 1015.3
20260508042703 48 0 0.0 0.0 0.00 0.00 0.00 84 1015.3
20260508041803 48 0 0.0 0.0 0.00 0.00 0.00 84 1015.3
20260508040903 48 0 0.0 1.0 0.00 0.00 0.00 84 1015.3
20260508040003 48 0 0.0 0.0 0.00 0.00 0.00 84 1015.3
20260508035617 48 0 0.0 0.0 0.00 0.00 0.00 84 1015.3
20260508034503 48 0 0.0 1.0 0.00 0.00 0.00 85 1015.3
20260508033603 48 0 0.0 1.0 0.00 0.00 0.00 85 1015.3
20260508032703 47 0 0.0 1.0 0.00 0.00 0.00 86 1015.3
20260508031803 47 0 0.0 0.0 0.00 0.00 0.00 87 1015.3
20260508031118 47 173 0.0 2.0 0.00 0.00 0.00 88 1015.3
20260508030003 46 0 0.0 0.0 0.00 0.00 0.00 89 1015.3
20260508025403 46 0 0.0 0.0 0.00 0.00 0.00 89 1015.3
20260508024503 46 0 0.0 0.0 0.00 0.00 0.00 88 1015.3
20260508023603 46 0 0.0 0.0 0.00 0.00 0.00 88 1015.3
20260508022703 46 0 0.0 0.0 0.00 0.00 0.00 88 1015.3
20260508021803 46 0 0.0 0.0 0.00 0.00 0.00 87 1015.3
20260508020903 47 0 0.0 0.0 0.00 0.00 0.00 86 1015.3
20260508020003 47 0 0.0 0.0 0.00 0.00 0.00 85 1015.3
20260508015403 48 0 0.0 0.0 0.00 0.00 0.00 85 1015.3
20260508014718 48 172 0.0 1.0 0.00 0.00 0.00 85 1015.3
20260508013603 48 0 0.0 0.0 0.00 0.00 0.00 85 1015.2
20260508012916 48 0 0.0 0.0 0.00 0.00 0.00 85 1015.2
20260508011803 48 173 0.0 0.0 0.00 0.00 0.00 84 1015.2
20260508010903 49 173 0.0 2.0 0.00 0.00 0.00 84 1015.1
20260508010003 49 0 0.0 1.0 0.00 0.00 0.00 84 1015.1
20260508005403 49 0 0.0 0.0 0.00 0.00 0.00 84 1015.1
20260508004503 49 0 0.0 0.0 0.00 0.00 0.00 83 1015.1
20260508003603 49 0 0.0 1.0 0.00 0.00 0.00 83 1015.2
20260508002703 49 0 0.0 1.0 0.00 0.00 0.00 83 1015.2
20260508001803 49 0 0.0 0.0 0.00 0.00 0.00 84 1015.3
20260508000903 49 0 0.0 1.0 0.00 0.00 0.00 84 1015.3
20260508000003 49 0 0.0 1.0 0.00 0.00 0.00 84 1015.3
20260507235403 49 0 0.0 0.0 0.00 0.00 0.00 84 1015.3
20260507234717 49 0 0.0 0.0 0.00 0.00 0.00 84 1015.3
20260507233816 49 0 0.0 0.0 0.00 0.00 0.00 83 1015.3
20260507232703 49 174 0.0 1.0 0.00 0.00 0.00 83 1015.3
20260507231803 50 173 0.0 2.0 0.00 0.00 0.00 83 1015.3
20260507230903 50 174 1.0 4.0 0.00 0.00 0.00 83 1015.3
20260507230003 50 179 0.0 2.0 0.00 0.00 0.00 82 1015.3
20260507225617 50 179 0.0 2.0 0.00 0.00 0.00 83 1015.3
20260507224504 50 0 0.0 0.0 0.00 0.00 0.00 83 1015.2
20260507223603 50 0 0.0 1.0 0.00 0.00 0.00 83 1015.2
20260507222703 49 0 0.0 0.0 0.00 0.00 0.00 83 1015.1
20260507221803 50 179 0.0 1.0 0.00 0.00 0.00 83 1015.1
20260507220903 49 0 0.0 1.0 0.00 0.00 0.00 83 1015.1
20260507220003 50 0 0.0 1.0 0.00 0.00 0.00 82 1015.0
20260507215404 50 0 0.0 1.0 0.00 0.00 0.00 83 1015.0
20260507214503 50 0 0.0 0.0 0.00 0.00 0.00 81 1015.0
20260507213603 51 0 0.0 0.0 0.00 0.00 0.00 80 1015.0
20260507212703 51 0 0.0 0.0 0.00 0.00 0.00 80 1015.0
20260507212016 52 179 0.0 1.0 0.00 0.00 0.00 79 1015.0
20260507210903 52 179 0.0 1.0 0.00 0.00 0.00 79 1015.0
20260507210003 52 0 0.0 1.0 0.00 0.00 0.00 79 1014.9
20260507205403 52 0 0.0 0.0 0.00 0.00 0.00 79 1014.8
20260507204503 52 0 0.0 0.0 0.00 0.00 0.00 79 1014.7
20260507203603 52 0 0.0 0.0 0.00 0.00 0.00 78 1014.7
20260507202703 52 0 0.0 1.0 0.00 0.00 0.00 78 1014.5
20260507202018 52 0 0.0 1.0 0.00 0.00 0.00 77 1014.5
20260507200903 52 179 0.0 1.0 0.00 0.00 0.00 76 1014.4
20260507200003 53 177 1.0 3.0 0.00 0.00 0.00 76 1014.3
20260507195403 53 190 1.0 4.0 0.00 0.00 0.00 75 1014.2
20260507194503 53 198 1.0 3.0 0.00 0.00 0.00 75 1014.2
20260507193603 53 198 1.0 3.0 0.00 0.00 0.00 75 1014.2
20260507192703 53 198 0.0 2.0 0.00 0.00 0.00 74 1014.2
20260507191803 53 198 0.0 2.0 0.00 0.00 0.00 73 1014.2
20260507190903 53 0 0.0 1.0 0.00 0.00 0.00 73 1014.2
20260507190004 54 198 1.0 3.0 0.00 0.00 0.00 74 1014.2
20260507185403 54 197 0.0 2.0 0.00 0.00 0.00 74 1014.2
20260507184503 54 197 0.0 2.0 0.00 0.00 0.00 73 1014.2
20260507183603 54 194 1.0 3.0 0.00 0.00 0.00 72 1014.1
20260507182703 54 192 1.0 2.0 0.00 0.00 0.00 72 1014.0
20260507181803 54 0 0.0 2.0 0.00 0.00 0.00 72 1013.9
20260507180903 54 191 0.0 3.0 0.00 0.00 0.00 71 1013.9
20260507180003 54 198 0.0 2.0 0.00 0.00 0.00 71 1013.9
20260507175617 54 198 0.0 2.0 0.00 0.00 0.00 71 1013.9
20260507174503 55 191 0.0 3.0 0.00 0.00 0.00 70 1013.9
20260507173816 55 193 1.0 3.0 0.00 0.00 0.00 68 1013.9
20260507172703 56 192 3.0 6.0 0.00 0.00 0.00 61 1013.8
20260507171803 56 198 2.0 5.0 0.00 0.00 0.00 62 1013.8
20260507171116 57 167 3.0 5.0 0.00 0.00 0.00 60 1013.8
20260507170003 57 187 4.0 13.0 0.00 0.00 0.00 58 1013.8
20260507165403 58 182 4.0 7.0 0.00 0.00 0.00 58 1013.8
20260507164503 58 165 4.0 6.0 0.00 0.00 0.00 57 1013.7
20260507163603 58 181 4.0 9.0 0.00 0.00 0.00 56 1013.7
20260507162703 58 158 4.0 9.0 0.00 0.00 0.00 56 1013.7
20260507161803 58 186 4.0 11.0 0.00 0.00 0.00 55 1013.7
20260507161118 59 169 3.0 8.0 0.00 0.00 0.00 54 1013.8
20260507160003 59 147 3.0 8.0 0.00 0.00 0.00 55 1013.8
20260507155403 59 160 3.0 8.0 0.00 0.00 0.00 54 1013.8
20260507154503 58 173 2.0 7.0 0.00 0.00 0.00 57 1013.9
20260507153818 58 185 2.0 4.0 0.00 0.00 0.00 57 1013.9
20260507152703 57 198 2.0 4.0 0.00 0.00 0.00 58 1014.0
20260507151803 57 170 3.0 8.0 0.00 0.00 0.00 58 1014.0
20260507150903 58 152 4.0 9.0 0.00 0.00 0.00 56 1014.0
20260507150217 58 186 3.0 9.0 0.00 0.00 0.00 55 1014.0
20260507145403 59 164 3.0 10.0 0.00 0.00 0.00 55 1014.1
20260507144503 60 152 4.0 8.0 0.00 0.00 0.00 55 1014.2
20260507143603 60 169 4.0 9.0 0.00 0.00 0.00 54 1014.3
20260507142703 60 178 4.0 14.0 0.00 0.00 0.00 54 1014.4
20260507141803 61 183 4.0 7.0 0.00 0.00 0.00 52 1014.6
20260507140903 61 173 3.0 11.0 0.00 0.00 0.00 52 1014.6
20260507140003 61 150 3.0 7.0 0.00 0.00 0.00 53 1014.6
20260507135618 60 164 3.0 9.0 0.00 0.00 0.00 52 1014.7
20260507134503 60 177 3.0 6.0 0.00 0.00 0.00 53 1014.8
20260507133603 60 178 4.0 10.0 0.00 0.00 0.00 55 1014.8
20260507132703 60 158 4.0 9.0 0.00 0.00 0.00 53 1014.9
20260507131803 60 157 4.0 8.0 0.00 0.00 0.00 54 1014.9
20260507130903 60 157 4.0 9.0 0.00 0.00 0.00 54 1014.9
20260507130003 59 160 4.0 10.0 0.00 0.00 0.00 56 1015.0
20260507125403 59 178 4.0 10.0 0.00 0.00 0.00 56 1015.1
20260507124503 59 167 5.0 8.0 0.00 0.00 0.00 57 1015.1
20260507123603 59 166 4.0 8.0 0.00 0.00 0.00 56 1015.1
20260507122918 58 174 4.0 11.0 0.00 0.00 0.00 56 1015.1
20260507121803 58 173 4.0 10.0 0.00 0.00 0.00 56 1015.1
20260507120903 57 161 4.0 10.0 0.00 0.00 0.00 62 1015.2
20260507120004 56 154 4.0 7.0 0.00 0.00 0.00 64 1015.2
20260507115617 56 157 4.0 10.0 0.00 0.00 0.00 64 1015.2
20260507114717 55 158 4.0 8.0 0.00 0.00 0.00 66 1015.3
20260507113603 53 159 5.0 9.0 0.00 0.00 0.00 69 1015.4
20260507112703 53 156 4.0 9.0 0.00 0.00 0.00 70 1015.4
20260507112017 52 153 4.0 9.0 0.00 0.00 0.00 71 1015.4
20260507110903 52 159 3.0 8.0 0.00 0.00 0.00 71 1015.5
20260507110003 51 150 3.0 7.0 0.00 0.00 0.00 73 1015.5
20260507105403 51 146 3.0 4.0 0.00 0.00 0.00 73 1015.6
20260507104503 50 150 4.0 9.0 0.00 0.00 0.00 74 1015.7
20260507103603 51 150 3.0 7.0 0.00 0.00 0.00 73 1015.7
20260507102703 50 154 4.0 8.0 0.00 0.00 0.00 75 1015.7
20260507101803 50 159 4.0 9.0 0.00 0.00 0.00 74 1015.7
20260507100903 50 158 4.0 8.0 0.00 0.00 0.00 75 1015.7
20260507100003 49 158 3.0 6.0 0.00 0.00 0.00 77 1015.7
20260507095403 49 152 4.0 7.0 0.00 0.00 0.00 78 1015.7
20260507094503 48 166 4.0 8.0 0.00 0.00 0.00 78 1015.7
20260507093817 48 146 4.0 8.0 0.00 0.00 0.00 79 1015.7
20260507092703 47 148 4.0 7.0 0.00 0.00 0.00 80 1015.7
20260507091803 47 161 3.0 7.0 0.00 0.00 0.00 81 1015.7
20260507090903 47 155 3.0 7.0 0.00 0.00 0.00 81 1015.7
20260507090004 47 144 3.0 8.0 0.00 0.00 0.00 81 1015.6
20260507085403 47 161 3.0 7.0 0.00 0.00 0.00 81 1015.6
20260507084503 47 154 4.0 7.0 0.00 0.00 0.00 82 1015.5
20260507083603 46 152 4.0 5.0 0.00 0.00 0.00 82 1015.5
20260507082916 46 157 3.0 7.0 0.00 0.00 0.00 82 1015.6
20260507081803 46 147 4.0 7.0 0.00 0.00 0.00 82 1015.6